Regional Weather Roundup
Issued by NWS

Home | Current Version | Previous Version | Graphics & Text | Print | Product List | Glossary On
Versions: 1 2 3 4 5 6 7 8 9 10 11 12 13 14 15 16 17 18 19 20 21 22 23 24 25 26 27
000
ASUS45 KBOI 230110
RWRID

IDAHO REGIONAL WEATHER ROUNDUP
NATIONAL WEATHER SERVICE BOISE ID
700 PM MDT THU JUN 22 2017

NOTE: "FAIR" INDICATES FEW OR NO CLOUDS BELOW 12000 FEET
WITH NO SIGNIFICANT WEATHER AND/OR OBSTRUCTIONS TO VISIBILITY

IDZ012-014-230200-
SOUTHWEST IDAHO


CITY           SKY/WX    TMP DP  RH WIND       PRES   REMARKS
BOISE          SUNNY     81  28  14 NW23G32   30.05F
CALDWELL       SUNNY     80  36  20 W15       30.06F
MOUNTAIN HOME  SUNNY     81  25  13 NW25G31   30.04F
$$

IDZ016-017-230200-
SOUTHCENTRAL IDAHO


CITY           SKY/WX    TMP DP  RH WIND       PRES   REMARKS
BURLEY         SUNNY     75  33  21 W13G26    30.04S
JEROME         SUNNY     78  21  12 W20G31    30.05S
TWIN FALLS     SUNNY     77  23  13 W21G26    30.06F
$$

IDZ019>023-230200-
SOUTHEAST IDAHO


CITY           SKY/WX    TMP DP  RH WIND       PRES   REMARKS
IDAHO FALLS    SUNNY     76  39  26 S15       30.05F
POCATELLO      MOSUNNY   77  31  18 SW18      30.06S
REXBURG        SUNNY     74  40  29 S10       30.06S
$$

IDZ006-010-011-018-031-032-230200-
CENTRAL IDAHO MOUNTAINS


CITY           SKY/WX    TMP DP  RH WIND       PRES   REMARKS
MCCALL         SUNNY     68  24  19 N10G20    30.20R
HAILEY         SUNNY     73  45  35 SE7       30.06F
STANLEY          N/A     70  25  18 N9G18     30.19S
SALMON         SUNNY     73  28  19 NW7       30.10R
CHALLIS        SUNNY     74  31  20 N13       30.09R
$$

IDZ002-004-006-007-026-230200-
NORTHERN IDAHO


CITY           SKY/WX    TMP DP  RH WIND       PRES   REMARKS
LEWISTON       SUNNY     79  31  17 NW8       30.16F
LOWELL           N/A     68  41  37 CALM      30.16S
COEUR D`ALENE  FAIR      72  35  25 S3        30.19F
MULLAN PASS    SUNNY     57  28  33 VRB5      30.29S
$$




USA.gov is the U.S. government's official web portal to all federal, state and local government web resources and services.